Regional Weather Roundup
Issued by NWS

Home | Current Version | Previous Version | Graphics & Text | Print | Product List | Glossary On
Versions: 1 2 3 4 5 6 7 8 9 10 11 12 13 14 15 16 17 18 19 20 21 22 23 24 25 26 27 28 29 30 31 32 33 34 35 36 37 38 39 40 41 42 43 44 45 46 47 48 49 50
000
ASUS43 KMPX 291601
RWRMN
WEATHER ROUNDUP FOR MINNESOTA
NATIONAL WEATHER SERVICE TWIN CITIES/CHANHASSEN MN
1100 AM CDT SAT APR 29 2017


NOTE: "FAIR" INDICATES FEW OR NO CLOUDS BELOW 12,000 FEET WITH NO
SIGNIFICANT WEATHER AND/OR OBSTRUCTIONS TO VISIBILITY. N/A MEANS
CURRENT SKY AND/OR WEATHER CONDITIONS ARE NOT AVAILABLE.

MNZ060>063-068>070-291700-
   Twin Cities Metro

CITY           SKY/WX    TMP DP  RH WIND       PRES   REMARKS
TWIN CITIES    CLOUDY    48  23  37 NE15G22   30.29F
ST PAUL        SUNNY     48  26  42 NE14      30.30F
CRYSTAL        SUNNY     48  22  35 NE14G21   30.29F
BLAINE         PTSUNNY   48  27  43 NE13      30.30F
LAKEVILLE      MOSUNNY   45  27  49 NE12      30.27F
EDEN PRAIRIE   CLOUDY    48  23  37 E12       30.27F
SOUTH ST PAUL  MOSUNNY   47  22  37 E12G18    30.28F
LAKE ELMO      FAIR      46  28  49 NE9G16    30.30F
$$
MNZ001>005-007-008-013>017-022>024-027-028-291700-
   Northwest Minnesota

CITY           SKY/WX    TMP DP  RH WIND       PRES   REMARKS
BEMIDJI        SUNNY     48  19  31 SE5       30.35S
HALLOCK        SUNNY     50  18  27 S5        30.34R
ROSEAU         SUNNY     48  25  40 SW3       30.34S
WARROAD        SUNNY     46  30  53 CALM      30.35R
THIEF RVR FALL SUNNY     48  13  24 S5        30.36R
CROOKSTON      SUNNY     48  21  34 S3        30.37R
FOSSTON        SUNNY     48  19  32 S8        30.35S
DETROIT LAKES  SUNNY     46  21  36 SW7       30.34F
MOORHEAD       SUNNY     48  25  40 S8        30.35F
PARK RAPIDS    SUNNY     48  21  34 SE5       30.33F
MAHNOMEN       FAIR      48  26  42 SW9       30.35S
$$
MNZ006-009>011-018-025>026-291700-
   North Central Minnesota

CITY           SKY/WX    TMP DP  RH WIND       PRES   REMARKS
BAUDETTE       SUNNY     50  16  25 E5        30.34R
FLAG ISLAND    SUNNY     37  28  70 S7        30.35R
INTL FALLS     SUNNY     47  16  29 CALM      30.36R
WASKISH        SUNNY     48  27  43 W7        30.36R
BIG FORK       SUNNY     50  21  32 CALM      30.36R
LONGVILLE      SUNNY     48  21  34 NE3       30.33F
GRAND RAPIDS   SUNNY     46  19  34 MISG      30.36F
CRANE LAKE     SUNNY     45   9  23 CALM      30.38R
ORR            SUNNY     46  12  25 SE6       30.33F
COOK           SUNNY     45  16  31 CALM      30.36S
WALKER         FAIR      45  23  41 E6        30.35S
$$
MNZ012-019>021-037-291700-
   Northeast Minnesota

CITY           SKY/WX    TMP DP  RH WIND       PRES   REMARKS
DULUTH         SUNNY     43  20  39 SE6       30.34F
ELY            SUNNY     43   9  24 CALM      30.35F
HIBBING        SUNNY     44  18  35 CALM      30.34F
EVELETH        SUNNY     46   5  18 SW5       30.36F
DULUTH HARBOR  MOSUNNY   43  30  61 N7        30.38F
TWO HARBORS    SUNNY     46  28  49 E5        30.34F
SILVER BAY     SUNNY     45  23  42 E5        30.35F
G MARAIS ARPRT SUNNY     39  16  38 SE5       30.35S
$$
MNZ029>031-032-039>041-046>048-054>057-064-291700-
   West Central Minnesota

CITY           SKY/WX    TMP DP  RH WIND       PRES   REMARKS
FERGUS FALLS   SUNNY     46  25  42 SW6       30.33F
WHEATON        SUNNY     48  21  34 SE3       30.34F
MORRIS         SUNNY     48  27  43 E8        30.29F
ALEXANDRIA     SUNNY     46  24  42 SE7       30.32F
ELBOW LAKE     FAIR      46  25  42 CALM      30.32F
WADENA         SUNNY     46  25  42 CALM      30.32F
GLENWOOD       SUNNY     48  27  43 E8        30.31F
APPLETON       CLOUDY    48  25  40 E9        30.29F
BENSON         MOSUNNY   52  18  25 E7        30.31F
ORTONVILLE     SUNNY     46  25  42 E6        30.30F
MADISON        MOSUNNY   52  27  37 E8        30.29F
WILLMAR        FAIR      48  28  46 E13G18    30.30F
$$
MNZ033>034-036-042>043-049>051-058-059-291700-
   Central Minnesota

CITY           SKY/WX    TMP DP  RH WIND       PRES   REMARKS
ST CLOUD       SUNNY     47  24  40 VRB6      30.32F
SAUK CENTRE    FAIR      45  27  49 E7        30.32F
PAYNESVILLE    SUNNY     46  24  42 E9        30.31F
AITKIN         SUNNY     48  18  29 N5        30.32F
PINE RIVER     SUNNY     46  25  42 N3        30.36F
BRAINERD       SUNNY     48  23  37 VRB3      30.33F
STAPLES        SUNNY     46  21  36 SW3       30.32F
LONG PRAIRIE   FAIR      45  27  49 NE7       30.32F
LITTLE FALLS   SUNNY     45  23  42 NE6       30.33F
LITCHFIELD     CLOUDY    46  28  49 E12G17    30.31F
BUFFALO        SUNNY     47  26  42 NE10      30.32F
MAPLE LAKE     SUNNY     48  28  45 NE10      30.33F
HUTCHINSON     SUNNY     47  28  48 NE13      30.30F
$$
MNZ037-044-045-052-053-291700-
   East Central Minnesota

CITY           SKY/WX    TMP DP  RH WIND       PRES   REMARKS
PRINCETON      SUNNY     48  21  34 NE9G16    30.33F
MORA           SUNNY     45  25  45 SE5       30.35F
CAMBRIDGE      SUNNY     48  28  46 E7        30.31F
RUSH CITY      SUNNY     48  25  40 NE8       30.33F
MOOSE LAKE     MOSUNNY   46  23  39 NE10G17   30.32F
HINCKLEY       FAIR      46  27  46 NE9       30.33F
CLOQUET        SUNNY     45  14  29 NE7       30.33F
MCGREGOR       SUNNY     46  23  39 CALM      30.34F
$$
MNZ071>073-080-081-089-090-097-098-291700-
   Southwest Minnesota

CITY           SKY/WX    TMP DP  RH WIND       PRES   REMARKS
MONTEVIDEO     CLOUDY    50  25  37 SE13G18   30.29F
GRANITE FALLS  CLOUDY    49  26  41 E10G18    30.30F
CANBY          MOSUNNY   49  23  35 SE12G17   30.29F
MARSHALL       PTSUNNY   46  25  43 E16G23    30.27F
REDWOOD FALLS  PTSUNNY   48  22  35 E13G22    30.27F
OLIVIA         CLOUDY    50  28  43 E9G17     30.28F
PIPESTONE      MOSUNNY   45  19  36 E14G22    30.22F
WINDOM         PTSUNNY   45  28  53 NE15      30.23F
WORTHINGTON    PTSUNNY   43  30  60 NE17G26   30.21F
JACKSON        CLOUDY    43  32  65 NE18      30.21F
TRACY          MOSUNNY   47  28  48 E20G26    30.25F
SLAYTON        MOSUNNY   44  30  58 E17       30.24F
$$
MNZ065>067-074>077-082>085-091>093-291700-
   South Central Minnesota

CITY           SKY/WX    TMP DP  RH WIND       PRES   REMARKS
MANKATO        CLOUDY    44  26  49 E13       30.26F
NEW ULM        MOSUNNY   45  25  45 NE8       30.26F
ST JAMES       PTSUNNY   45  28  53 NE16      30.25F
FAIRMONT       CLOUDY    43  31  62 NE15      30.23F
GLENCOE        CLOUDY    48  30  49 NE10G16   30.28F
FARIBAULT      CLOUDY    46  27  46 NE14      30.26F
OWATONNA       CLOUDY    46  27  46 NE16G22   30.25F
WASECA         MOSUNNY   43  30  61 NE13      30.26F
ALBERT LEA     PTSUNNY   41  28  60 NE15      30.23F
$$
MNZ078>079-086>088-094>096-291700-
   Southeast Minnesota

CITY           SKY/WX    TMP DP  RH WIND       PRES   REMARKS
ROCHESTER      CLOUDY    41  28  60 E14       30.24S
RED WING       MOSUNNY   46  19  34 NE12G18   30.27F
STANTON        PTSUNNY   47  29  48 NE16      30.26F
DODGE CENTER   CLOUDY    43  28  56 NE17G23   30.24F
WINONA         CLOUDY    46  28  49 E8        30.27R
AUSTIN         CLOUDY    43  28  56 NE9G17    30.22F
PRESTON        CLOUDY    42  27  55 E14       30.22F
$$
ABBREVIATIONS USED IN REMARKS
   TC - TEMPERATURES IN CELSIUS
  WCI - WIND CHILL INDEX
   HX - HEAT INDEX
  VSB - VISIBILITY
$$




USA.gov is the U.S. government's official web portal to all federal, state and local government web resources and services.